Presure
331 311 302 297 297 275 239 279 292 279 296 297 311 303 300 285 277 264 254 246 249 247 243 236 236 235 233 233 231 231 230 229 231 231 233 236 239 237 238 246 254 252 263 261
335 320 297 297 286 282 232 233 274 272 279 296 296 307 305 292 302 296 281 268 252 253 250 245 243 240 236 235 235 234 230 232 239 237 238 244 240 244 244 241 245 248 254 254
329 333 309 299 286 278 269 218 216 233 245 262 273 295 290 293 300 297 295 295 292 273 255 246 241 243 242 243 241 240 241 240 241 241 241 242 246 247 245 259 248 245 244 249
317 327 313 294 291 287 277 282 271 276 272 267 272 304 259 248 288 303 307 308 306 312 302 292 285 275 261 251 246 247 245 251 249 247 246 245 247 247 249 255 253 252 243 247
320 351 313 300 298 291 282 280 276 274 293 268 286 279 285 280 238 267 239 238 280 300 295 305 313 319 310 310 276 266 257 248 250 256 242 250 246 250 252 253 245 253 244 243
429 415 412 293 306 297 282 280 283 276 278 275 268 272 277 271 270 271 279 277 240 230 288 262 276 278 279 294 304 316 293 278 267 262 259 253 243 250 255 254 261 245 250 245
330 354 406 409 319 293 284 272 279 279 276 277 274 271 273 267 270 272 271 272 276 278 284 290 258 255 274 270 291 310 321 323 304 286 270 266 258 260 245 262 265 270 261 252
354 334 330 366 400 378 326 298 291 296 291 286 277 281 276 275 273 276 273 277 284 289 282 281 285 297 295 302 288 243 291 258 303 332 335 286 273 262 263 249 253 275 269 262
368 363 353 336 323 330 369 414 310 307 300 290 290 285 284 284 284 281 283 287 278 294 288 288 298 307 313 359 346 357 344 348 354 352 371 374 340 290 277 265 253 269 273 267
368 365 362 357 354 348 337 325 323 331 344 350 349 340 333 326 324 323 318 315 302 307 316 350 345 335 389 390 389 382 377 376 379 383 393 401 410 416 389 302 277 264 252 273
334 338 362 362 360 357 354 353 354 353 352 351 351 349 339 340 341 349 366 382 381 380 374 370 366 360 354 351 345 342 341 341 343 346 354 365 375 435 504 544 462 391 279 266
278 277 328 325 341 332 338 372 371 371 368 364 357 355 348 344 338 333 329 327 325 322 321 320 320 315 309 309 308 308 312 315 319 324 334 374 368 405 481 520 524 502 499 439
293 290 281 279 279 275 319 315 314 310 309 308 301 303 304 303 302 303 304 305 304 304 304 301 302 299 295 302 300 301 306 311 320 327 333 352 382 373 406 527 528 499 476 474
294 275 276 289 293 290 283 278 282 277 313 325 325 326 320 319 320 317 313 311 310 312 314 310 310 309 310 306 297 296 299 300 304 314 330 338 373 369 389 536 516 508 472 453
308 308 300 283 280 282 283 283 284 283 282 286 281 280 277 303 309 336 343 347 348 350 353 352 354 347 306 296 299 303 304 306 315 320 330 335 362 370 376 519 498 494 478 447
309 303 299 295 291 283 275 278 290 297 289 289 294 291 289 300 290 290 323 341 337 344 352 354 354 351 336 310 307 306 308 309 319 332 334 350 358 367 366 487 485 485 467 443
295 294 295 295 288 288 297 293 288 331 324 323 314 323 324 329 327 329 317 337 331 336 311 305 301 300 296 297 299 307 315 323 330 339 342 352 357 358 363 436 481 450 440 426
295 292 291 293 294 297 300 302 300 297 295 294 294 294 294 295 297 294 292 293 294 299 301 299 298 300 304 309 313 317 322 329 335 340 349 352 355 353 359 412 470 404 402 400
301 299 300 300 299 299 299 299 300 301 303 304 303 303 303 302 301 299 299 298 298 299 303 300 300 304 308 313 313 319 324 331 337 342 347 352 355 344 353 403 463 376 392 412
304 306 309 310 313 317 318 319 320 318 319 320 318 316 317 319 321 321 319 316 314 317 315 314 314 314 319 322 325 325 329 337 338 343 339 349 354 341 351 402 455 375 396 465
312 314 318 322 325 329 333 336 337 339 341 343 345 345 344 343 340 338 337 336 335 335 334 333 333 331 334 337 338 337 337 344 344 343 336 344 352 343 353 404 447 387 405 413
331 337 343 349 354 358 367 381 392 399 403 404 402 400 396 385 377 371 368 363 354 349 345 345 345 348 346 346 344 340 344 340 346 348 341 341 339 345 362 406 444 382 426 375
359 370 382 398 418 436 442 443 442 440 438 434 430 432 431 427 420 418 407 397 393 386 379 374 372 365 357 356 351 350 356 352 345 351 351 343 331 347 375 412 445 382 381 377
344 343 359 373 385 391 395 391 392 418 422 423 434 437 434 431 428 433 435 430 425 421 415 409 401 396 398 397 391 383 379 374 366 363 357 344 336 355 388 418 448 381 382 380
313 317 416 432 437 436 437 436 434 431 429 426 421 412 410 417 473 473 459 450 441 431 426 424 419 416 420 420 419 412 403 394 387 375 355 334 343 370 402 374 304 296 295 291
320 322 335 456 459 454 450 446 444 442 444 465 459 443 430 420 409 401 395 400 405 437 474 483 456 432 420 419 424 424 420 409 400 381 337 332 354 389 412 355 303 294 289 313
349 355 339 447 443 436 435 432 422 425 459 451 436 426 421 424 424 429 431 428 423 430 422 416 434 483 476 421 407 418 426 421 403 364 332 340 373 406 425 327 309 301 303 338
Wind_Speed
49 53 55 54 55 46 52 42 44 51 45 51 53 62 71 82 87 92 95 96 97 99 100 102 103 104 105 106 108 110 113 113 114 114 114 112 112 111 109 108 104 104 104 106
46 58 55 59 52 51 54 52 47 51 50 40 44 53 62 66 70 80 89 95 99 100 102 103 104 106 106 107 108 108 109 109 108 110 109 108 109 107 105 104 103 103 104 104
44 55 63 60 56 54 56 57 59 57 57 63 60 56 58 60 61 67 73 78 84 95 101 103 104 106 107 109 110 111 111 110 110 110 109 108 107 106 106 104 105 107 106 107
39 48 60 54 59 60 63 65 57 56 58 62 62 59 69 70 62 59 61 68 70 71 81 88 96 103 109 110 110 111 111 111 111 111 110 109 108 107 106 105 106 109 110 110
36 48 50 53 61 63 66 65 64 61 60 62 57 58 63 66 71 71 68 68 71 64 67 67 70 77 78 79 103 109 113 114 114 113 112 111 110 110 109 109 109 111 112 114
18 26 36 44 61 66 59 62 65 61 64 63 62 63 65 65 66 66 65 63 74 75 68 80 77 80 84 81 83 86 103 110 114 115 115 115 113 113 112 112 113 114 116 117
26 24 25 33 58 62 60 53 63 66 66 67 67 66 67 67 71 73 72 70 72 72 72 74 87 87 87 91 85 83 85 90 105 111 117 117 117 116 115 116 116 119 121 121
20 27 30 27 26 45 72 70 70 77 74 72 70 74 73 74 76 81 79 80 85 88 81 77 81 88 85 91 91 93 95 92 101 102 100 116 118 119 119 118 117 121 123 125
13 16 22 29 34 37 31 26 69 74 74 70 74 75 77 80 80 78 81 87 81 93 87 86 90 95 93 80 83 77 82 82 81 85 84 88 109 122 121 119 119 121 124 127
15 15 16 19 23 28 35 42 46 48 48 51 57 65 69 74 77 80 83 84 81 81 84 75 78 79 55 52 52 55 57 59 61 63 65 68 71 76 91 123 124 124 124 128
18 18 17 18 20 23 26 29 32 35 39 42 45 47 53 53 55 54 49 42 41 41 43 44 46 47 49 50 51 52 53 55 57 59 61 63 67 60 50 47 74 98 130 129
24 22 21 21 20 21 21 22 23 25 26 27 29 31 32 35 38 41 43 44 45 46 47 48 47 47 50 48 49 49 50 52 54 56 59 55 60 55 47 45 48 55 59 84
22 22 23 24 23 24 25 28 28 29 31 31 33 37 35 38 39 42 43 44 45 45 46 47 46 46 48 48 48 49 50 50 52 54 55 53 50 53 51 43 43 48 56 60
24 27 28 27 25 25 26 29 28 30 32 35 35 36 38 41 41 42 44 45 47 48 48 48 49 47 49 47 47 48 49 49 51 53 52 52 49 50 49 38 40 42 48 54
27 28 28 29 31 31 32 33 33 32 34 34 37 38 38 40 41 43 43 42 43 45 45 45 46 45 48 48 49 50 50 51 52 51 50 50 49 48 48 37 36 37 41 48
29 29 32 33 34 34 37 37 37 37 36 37 38 41 41 40 43 43 42 41 43 45 44 42 44 44 45 49 50 51 52 52 52 52 51 49 48 48 46 39 36 32 35 42
34 34 33 33 34 36 36 38 40 38 40 40 41 43 44 43 43 43 43 42 43 44 45 43 48 46 47 49 50 52 52 52 51 51 50 49 47 47 46 42 34 32 32 36
34 35 36 37 39 40 41 40 39 40 41 42 43 44 46 46 46 47 47 47 48 49 48 44 49 50 50 49 50 52 52 51 51 50 49 47 46 45 45 42 34 30 31 33
38 40 41 42 41 43 44 45 47 48 48 48 49 50 50 50 50 50 51 50 52 52 53 48 52 52 53 51 50 52 52 51 50 48 47 45 44 43 43 40 33 31 32 32
46 47 48 49 51 50 49 50 51 52 53 53 54 55 56 57 57 56 56 56 58 56 55 55 54 55 55 55 52 53 52 50 47 45 44 42 41 40 41 38 32 32 30 25
49 51 53 54 56 59 60 60 59 60 61 61 61 59 59 59 59 59 59 58 61 61 58 58 57 56 56 55 52 50 50 49 45 43 40 39 39 39 39 36 32 29 27 24
54 56 59 60 62 63 66 67 66 64 62 60 60 61 60 60 61 61 62 61 61 61 59 58 58 58 55 53 49 49 47 45 44 40 38 35 35 36 36 34 30 26 23 23
62 65 67 68 67 63 60 57 55 53 52 51 51 51 51 52 54 55 56 60 60 60 60 59 58 57 56 52 48 48 47 43 40 37 36 32 32 34 33 31 28 23 21 20
55 57 58 60 60 58 55 53 51 50 48 47 47 46 45 45 45 47 46 47 49 50 51 52 53 55 54 51 48 46 45 43 39 34 33 29 28 30 29 27 25 19 18 16
54 56 62 60 57 54 51 49 46 44 43 43 42 41 40 40 39 39 40 41 41 42 42 43 43 43 43 43 40 38 37 37 35 31 28 25 25 26 26 17 13 11 10 11
56 57 59 57 54 51 48 45 43 40 38 38 38 37 37 36 35 35 34 33 32 31 32 34 36 35 34 34 32 30 30 30 29 26 21 22 23 23 21 14 14 12 13 9
61 61 59 53 51 48 46 44 41 40 40 37 34 33 31 30 30 30 30 30 29 28 28 28 26 27 29 26 25 25 23 24 22 19 18 21 22 19 17 13 14 12 12 5
Wind_Direction
240 236 244 247 247 253 245 242 251 245 240 242 244 244 245 245 244 244 245 245 244 244 243 244 244 245 246 246 246 246 247 248 249 250 251 251 250 251 251 250 248 248 246 245
238 229 246 241 248 251 239 249 248 250 248 253 255 249 249 248 247 248 247 246 245 245 244 245 246 247 249 249 250 250 250 250 249 250 250 249 250 250 249 249 247 244 244 243
241 228 233 238 243 244 252 254 260 256 257 251 253 253 249 249 250 250 250 251 251 249 248 248 249 249 249 250 250 251 251 251 251 251 251 250 250 250 249 246 246 244 243 240
246 234 234 240 239 239 248 248 254 257 252 251 254 254 250 251 247 253 254 251 253 255 254 253 251 250 249 249 250 250 251 250 250 250 250 250 249 249 248 246 244 242 242 241
248 239 241 245 241 236 243 247 253 256 252 253 256 255 252 253 251 250 251 252 251 254 254 258 260 258 256 255 249 248 249 249 249 249 249 248 248 248 247 245 244 242 241 241
247 245 246 250 235 238 250 252 253 258 259 257 258 259 259 260 259 259 265 259 252 256 263 252 251 250 250 252 252 249 247 247 248 248 247 247 247 247 245 244 243 244 241 240
265 256 250 247 239 245 251 257 256 256 258 259 260 261 261 259 262 263 265 265 267 267 269 271 253 255 253 253 257 260 262 257 248 246 247 246 246 245 247 244 242 240 240 241
265 262 258 254 256 251 242 248 251 254 257 259 260 262 263 264 265 267 267 269 270 270 269 269 270 273 269 269 263 254 264 256 251 253 253 245 245 246 245 247 247 242 240 241
295 275 259 256 256 254 251 254 250 252 253 258 260 263 264 264 264 264 265 267 268 268 268 270 271 274 275 274 273 271 271 270 268 264 264 262 251 246 247 246 247 245 243 243
309 300 283 273 265 258 255 254 253 252 254 256 258 258 259 261 262 262 264 265 266 270 270 270 271 273 272 273 273 273 273 273 273 272 271 269 267 265 257 246 245 244 246 243
317 309 299 288 279 273 269 266 264 263 263 263 263 264 265 265 266 268 269 271 271 270 270 270 270 270 270 271 271 272 273 273 273 273 273 272 269 276 280 277 258 250 245 244
303 300 310 303 295 291 283 273 271 271 271 271 273 271 269 268 268 268 269 270 270 270 271 272 271 270 272 272 272 272 273 274 276 277 277 280 275 280 289 283 274 266 261 252
307 303 300 297 293 287 293 291 288 285 282 278 276 277 273 271 269 269 269 269 268 267 266 266 267 266 268 271 272 274 277 278 280 280 280 282 286 280 285 292 282 270 263 260
307 302 302 303 299 293 288 285 281 276 281 284 283 282 280 279 277 275 275 274 275 275 274 274 274 274 276 275 274 275 277 278 280 282 284 285 293 286 289 297 287 278 266 262
316 312 308 302 299 297 294 292 288 285 282 280 277 273 269 274 275 280 281 282 282 282 283 283 283 282 277 277 279 280 281 283 284 285 289 289 295 294 295 304 294 283 272 262
315 311 308 305 301 298 295 293 291 290 286 285 283 280 280 279 277 276 279 281 280 282 282 283 283 283 280 280 281 282 284 285 289 293 294 298 300 300 299 312 301 289 276 267
314 312 308 301 296 296 296 294 293 286 287 287 286 285 284 283 281 281 280 280 279 280 278 278 278 277 277 279 281 283 286 290 293 296 298 301 303 302 304 315 306 293 281 270
313 309 306 305 304 303 301 297 291 287 286 285 284 283 283 283 282 282 281 280 279 278 278 279 279 281 281 283 285 287 289 293 296 298 301 303 305 303 305 315 308 292 283 274
317 314 310 307 304 301 298 296 294 293 291 288 286 285 283 281 280 280 280 279 279 279 281 281 281 282 284 285 287 289 291 294 296 299 301 303 304 302 306 314 312 293 291 289
318 315 312 309 306 302 299 296 293 291 288 286 284 283 283 282 282 281 280 279 279 279 280 281 281 283 283 285 287 288 290 292 295 297 299 302 304 303 306 314 313 296 293 292
315 313 311 309 307 305 303 301 298 295 293 291 289 286 284 282 280 279 279 278 279 280 280 280 280 281 282 284 286 287 289 291 292 295 296 300 303 303 306 314 314 297 295 288
316 314 312 310 308 306 304 302 301 298 295 292 289 286 283 281 280 279 279 278 278 278 278 279 280 280 280 281 284 284 285 286 290 292 295 299 300 303 306 312 313 297 296 289
320 318 315 313 312 311 310 308 306 303 300 297 293 291 288 284 281 279 277 278 277 276 277 278 278 277 278 279 280 281 282 282 285 289 292 296 298 303 307 311 312 298 295 294
332 330 326 322 320 317 315 313 311 307 305 302 299 296 292 289 288 285 283 279 276 275 275 275 274 275 276 276 277 276 278 279 280 284 287 292 298 301 307 311 309 301 301 299
344 342 326 325 323 322 320 318 315 312 309 305 303 300 298 297 295 289 286 285 283 281 278 277 276 275 275 275 275 272 271 272 274 277 283 289 296 300 307 296 265 276 282 288
344 343 342 331 330 328 326 324 322 319 316 311 307 303 300 297 294 291 290 289 289 288 283 277 273 272 272 272 271 269 266 267 268 270 281 287 294 300 303 270 258 264 272 299
344 344 346 337 335 333 331 329 329 328 322 318 313 308 306 303 300 297 294 291 290 289 287 285 282 275 267 267 268 265 262 257 257 271 284 292 293 297 298 238 256 265 280 317